Location: Cheadle
(51.0146°N, 113.5417°W)
Time: 16:30:02
(UTC+00:00)

BlueWalker 3 - Pass Details

Date: 25 April 2024
Orbit: 482 x 494 km, 53.2° (Epoch: 19 May)

Event Time Altitude Azimuth Distance (km) Brightness Sun altitude
Rises 06:50:50 0° 290° (WNW) 2,586 6.0 -25.0°
Reaches altitude 10° 06:53:03 10° 285° (WNW) 1,702 4.9 -25.0°
Enters shadow 06:54:19 19° 279° (W) 1,227 4.0 -25.1°
